Regional Weather Roundup
Issued by NWS

Home | Current Version | Previous Version | Text Only | Print | Product List | Glossary Off
Versions: 1 2 3 4 5 6 7 8 9 10 11 12 13 14 15 16 17 18 19 20 21 22 23 24 25 26 27 28 29 30 31 32 33 34 35 36 37 38 39 40 41 42 43 44 45 46 47 48 49 50

486
ASUS43 KMKX 041921
RWRWI

WISCONSIN REGIONAL WEATHER ROUNDUP
NATIONAL WEATHER SERVICE MILWAUKEE/SULLIVAN WI
200 PM CDT WED MAY 04 2016

NOTE: "FAIR" INDICATES FEW OR NO CLOUDS BELOW 12,000 FEET WITH NO
SIGNIFICANT WEATHER AND/OR OBSTRUCTIONS TO VISIBILITY.

WIZ001-002-006>008-014>016-023>028-042000-
NORTHWEST WISCONSIN

CITY           SKY/WX    TMP DP  RH WIND       PRES   REMARKS
SUPERIOR ARPT  SUNNY     51  32  48 NE12      29.98R
ASHLAND        SUNNY     53  33  46 N14       29.98S
HAYWARD        SUNNY     58  19  22 NE20G25   29.94S
SIREN          SUNNY     62  21  20 N15G21    29.94S
CUMBERLAND     SUNNY     59  23  25 NW14G23   29.92F
RICE LAKE      SUNNY     60  18  19 N17G26    29.93F
CHETEK         SUNNY     60  28  29 N12G24    29.92S
LADYSMITH      SUNNY     58  26  29 N16G26    29.92F
EAU CLAIRE     SUNNY     62  25  24 N16G26    29.90F
MENOMONIE      MOSUNNY   63  31  30 NW13G20   29.91F
NEW RICHMOND   SUNNY     62  26  25 NW20      29.93F
OSCEOLA        SUNNY     63  28  26 NW10G21   29.96F
$$

WIZ003>005-009-010-017-018-042000-
NORTH CENTRAL WISCONSIN

CITY           SKY/WX    TMP DP  RH WIND       PRES   REMARKS
MANITOWISH WTR CLOUDY    47  32  56 NE9G18    29.93S
ARBOR VITAE    PTSUNNY   51  35  52 NE15G22   29.92R
WOODRUFF       PTSUNNY   51  35  52 NE15G22   29.92R
RHINELANDER    PTSUNNY   47  32  56 N13G22    29.91R
EAGLE RIVER    CLOUDY    44  30  59 N13G22    29.91S
LAND O LAKES   CLOUDY    42  32  67 N15G23    29.93R
PHILLIPS       SUNNY     50  27  40 N14G25    29.91S
TOMAHAWK       MOSUNNY   52  30  42 N14G20    29.89S
MEDFORD        SUNNY     55  26  32 N17G25    29.87S
MERRILL        SUNNY     55  30  38 N16G30    29.86F
$$

WIZ029-030-035-036-043>047-042000-
CENTRAL WISCONSIN

CITY           SKY/WX    TMP DP  RH WIND       PRES   REMARKS
WAUSAU         SUNNY     58  28  32 N14G29    29.83F
MOSINEE        MOSUNNY   55  27  33 N20G35    29.86F
MARSHFIELD     SUNNY     61  28  28 N18G28    29.85F
STEVENS POINT  MOSUNNY   55  27  34 N16G28    29.84S
WAUPACA        PTSUNNY   57  33  39 N15G25    29.83S
WAUTOMA        CLOUDY    57  30  35 NW21G26   29.82F
WISC RAPIDS    SUNNY     60  25  26 N17G28    29.86S
CAMP DOUGLAS   MOSUNNY   59  34  38 NW17G31   29.85S
$$

WIZ011>013-019>022-031-037>040-048>050-042000-
NORTHEAST WISCONSIN

CITY           SKY/WX    TMP DP  RH WIND       PRES   REMARKS
ANTIGO         CLOUDY    48  34  58 N22G28    29.87R
SHAWANO        PTSUNNY   56  35  44 N16G25    29.84R
OCONTO         CLOUDY    50  35  55 N15       29.82R
STURGEON BAY   CLOUDY    46  34  61 N21G26    29.85R
GREEN BAY      CLOUDY    51  36  56 N20       29.82S
MANITOWOC      CLOUDY    48  36  63 N20G29    29.81R
APPLETON       PTSUNNY   52  32  46 N18G29    29.81S
CLINTONVILLE   CLOUDY    54  32  43 N17G24    29.82F
OSHKOSH        CLOUDY    53  34  48 N18G31    29.81F
$$

WIZ032>034-041-042-053>061-042000-
SOUTHWEST WISCONSIN

CITY           SKY/WX    TMP DP  RH WIND       PRES   REMARKS
LA CROSSE      MOSUNNY   64  32  30 N21G28    29.88F
SPARTA         MOSUNNY   61  29  29 NW16G30   29.87S
VIROQUA        MOSUNNY   58  31  35 NW17G30   29.87S
BOSCOBEL       MOSUNNY   63  32  31 N16G29    29.86F
PRAIRIE DU CHI MOSUNNY   61  30  30 NW16      29.87F
PLATTEVILLE    PTSUNNY   59  34  39 NW21G31   29.84F
$$

WIZ056-057-062-063-064-067-068-042000-
SOUTH CENTRAL WISCONSIN

CITY           SKY/WX    TMP DP  RH WIND       PRES   REMARKS
REEDSBURG      MOSUNNY   58  30  34 NW14G29   29.83F
BARABOO/DELLS  PTSUNNY   59  26  27 NW12G23   29.83F
LONE ROCK      MOSUNNY   61  30  31 N22G30    29.85S
MINERAL POINT  MOSUNNY   61  28  29 NW20G31   29.83F
MADISON        PTSUNNY   57  35  43 N16       29.81F
MIDDLETON      PTSUNNY   58  33  39 N20G25    29.82F
WATERTOWN      CLOUDY    54  37  53 N16G23    29.80S
MONROE         PTSUNNY   57  34  41 N15G24    29.81S
JANESVILLE     CLOUDY    55  36  47 N14G20    29.80S
$$

WIZ051-052-058>065-066-070>072-042000-
SOUTHEAST WISCONSIN

CITY           SKY/WX    TMP DP  RH WIND       PRES   REMARKS
MILWAUKEE      CLOUDY    45  37  73 NE9G21    29.80S
WAUKESHA       CLOUDY    46  34  61 NW16G22   29.82R
MILWAUKEE/TIMM CLOUDY    48  32  53 N14G24    29.81S
RACINE         CLOUDY    44  36  73 N13       29.82R
BURLINGTON     CLOUDY    48  36  64 N17       29.81R
KENOSHA        CLOUDY    46  37  71 NE15      29.80R
FOND DU LAC    CLOUDY    52  36  54 N15       29.82S
SHEBOYGAN      CLOUDY    49  35  58 N15G22    29.80S
WEST BEND      CLOUDY    46  36  66 N12G20    29.80S
JUNEAU         CLOUDY    52  37  56 N14G22    29.82S
$$

LSZ147-162-042000-
LAKE SUPERIOR

STATION/POSITION TIME  TEMP    WIND        PRES    WAVE
                       AIR SEA DIR/SP/G            HT/PER
                 (UTC) (F)     (DEG/KT/KT) (MB)    (FT/S)
W MID LAKE BUOY  1850   38 37  230/  4/  6 1016.4R   2/ 5
DEVILS ISLAND    1900   44     120/  7/  9 1016.1F
SAXON HARBOR     1800   43      50/  9/ 11 1015.6
$$

LMZ867-665-643>646-042000-
LAKE MICHIGAN

STATION/POSITION TIME  TEMP    WIND        PRES    WAVE
                       AIR SEA DIR/SP/G            HT/PER
                 (UTC) (F)     (DEG/KT/KT) (MB)    (FT/S)
CHAMBERS ISLAND  1840   44     350/ 20/ 24 1010.2R
N MID LAKE BUOY  1850   41 39  330/ 17/ 21 1009.1R   4/ 5
NORTHPORT PIER   1904   41     340/ 22     1010.2R
ALGOMA LAKESHORE 1845          360/ 19/ 29   N/A
KEWAUNEE LAKESHO 1900   47      10/ 14/ 20 1008.9R
SHEBOYGAN LAKESH 1900   46      10/ 16/ 19 1009.8S
PORT WASHINGTON  1840   49     360/  8/ 14 1010.2R
S MID LAKE BUOY  1850   41 40  360/ 25/ 33 1007.3R   8/ 7
KENOSHA   LAKESH 1900   44      20/ 18/ 23 1009.1R
$$

TC  - TEMPERATURE IN CELSIUS
VSB - VISIBILITY IN STATUTE MILES
WCI - WIND CHILL INDEX
HX  - HEAT INDEX





USA.gov is the U.S. government's official web portal to all federal, state and local government web resources and services.